Location: Stilling
(56.0622°N, 9.9882°E)
Time: 00:27:06
(UTC+00:00)

Cosmos 1812 - Pass Details

Date: 13 July 2020
Orbit: 516 x 522 km, 82.5° (Epoch: 03 August)

Event Time Altitude Azimuth Distance (km) Brightness Sun altitude
Rises 22:04:41 0° 353° (N) 2,662 8.2 -10.4°
Reaches altitude 10° 22:07:03 10° 5° (N) 1,767 6.6 -10.5°
Maximum altitude 22:10:29 29° 67° (ENE) 975 4.1 -10.7°
Enters shadow 22:13:43 11° 128° (SE) 1,696 4.8 -10.8°
